Oshawa Airport
CYOO : now visible

Airfield :











YOU CAN JOIN US ON...

 
LOGIN :

Register | Disclaimer

   EN    FR    IT 

 









Legend :    VFR   Marginal VFR   IFR   Intensive IFR   Very Intensive IFR
Visi :
Ceiling :
>= 8 km
>= 3000ft
5 to 8 km
1000 to 3000 ft
1500m to 5 km
500 to 1000 ft
800 to 1500m
200 to 500 ft
< 800m
< 200 ft
Symbols :   Thunderstorms  Fog  Heavy snow  Heavy precipitations  Wind > 20 kt






- Airport Elevation : 459 ft
- IATA code : YOO


CYOO - Oshawa

CURRENT METAR :
  • 300900Z AUTO 02003KT 360V130 9SM CLR 04/03 A3038 RMK SLP293

EXPIRED METARs :
  • 300800Z AUTO 01003KT 9SM CLR 04/03 A3038 RMK SLP293
  • 300700Z AUTO 01003KT 9SM CLR 03/03 A3039 RMK SLP296

TAF TAF CYOO
Valid from the 30 at 08:00 until the 30 at 20:00 UTC


300740Z 3008/3020 01005KT P6SM SKC
PROB40 3008/3013 1SM BR
FM301600 18010KT P6SM SKC RMK FCST BASED ON AUTO OBS. NXT FCST BY 301400Z
CZYZ FIR / North America



MET'MAP, your aeronautical weather chart ! - Copyright ORBIFLY December 2007 - Disclaimer

ORBIFLY MET'MAP TEAM :

Programming & Development : Alexandra Zaïnal
Original concept : Baudouin d'Aumeries
Technical & hardware support : Manuel Goepfert
Assistance : Marc-Olivier Méhu




SOURCES & CREDITS :

   NOAA       Earth
Advisory